TimeEST,TemperatureF,Dew PointF,Humidity,Sea Level PressureIn,VisibilityMPH,Wind Direction,Wind SpeedMPH,Gust SpeedMPH,PrecipitationIn,Events,Conditions,WindDirDegrees,DateUTC
12:54 AM,46.0,37.9,73,30.09,5.0,East,11.5,-,0.09,Rain,Rain,80,2013-02-08 05:54:00
1:54 AM,45.0,39.0,80,30.04,5.0,ENE,13.8,-,0.09,Rain,Light Rain,60,2013-02-08 06:54:00
2:54 AM,44.1,39.0,82,29.98,4.0,NE,16.1,21.9,0.13,Rain,Rain,50,2013-02-08 07:54:00
3:36 AM,44.6,39.2,81,29.94,4.0,NE,13.8,21.9,0.14,Rain,Rain,50,2013-02-08 08:36:00
3:45 AM,44.6,39.2,81,29.93,3.0,NE,13.8,25.3,0.17,Rain,Rain,50,2013-02-08 08:45:00
3:54 AM,45.0,39.0,80,29.94,3.0,NE,15.0,21.9,0.20,Rain,Rain,40,2013-02-08 08:54:00
4:14 AM,44.6,39.2,81,29.92,2.5,NE,15.0,24.2,0.06,Rain,Rain,40,2013-02-08 09:14:00
4:37 AM,44.6,39.2,81,29.91,3.0,NNE,12.7,23.0,0.13,Rain,Rain,30,2013-02-08 09:37:00
4:54 AM,45.0,39.0,80,29.89,3.0,NNE,15.0,23.0,0.19,Rain,Rain,30,2013-02-08 09:54:00
5:05 AM,44.6,39.2,81,29.87,2.0,NNE,16.1,23.0,0.05,Rain,Heavy Rain,30,2013-02-08 10:05:00
5:18 AM,44.6,39.2,81,29.85,3.0,NNE,16.1,24.2,0.09,Rain,Rain,20,2013-02-08 10:18:00
5:52 AM,44.6,39.2,81,29.82,2.5,NNE,19.6,27.6,0.23,Rain,Heavy Rain,20,2013-02-08 10:52:00
5:54 AM,45.0,39.9,82,29.81,2.5,NNE,17.3,27.6,0.24,Rain,Heavy Rain,20,2013-02-08 10:54:00
6:17 AM,44.6,39.2,81,29.80,3.0,NNE,18.4,32.2,0.09,Rain,Rain,20,2013-02-08 11:17:00
6:54 AM,44.6,39.2,81,29.77,3.0,NNE,21.9,27.6,N/A,Rain,Rain,20,2013-02-08 11:54:00
7:54 AM,46.9,41.0,80,29.73,3.0,NNE,15.0,26.5,0.18,Rain,Rain,20,2013-02-08 12:54:00
8:54 AM,46.9,42.1,83,29.71,4.0,North,17.3,24.2,0.16,Rain,Rain,10,2013-02-08 13:54:00
9:50 AM,46.4,41.0,81,29.71,2.5,North,16.1,-,0.15,Rain,Rain,360,2013-02-08 14:50:00
9:54 AM,46.9,41.0,80,29.70,2.5,North,15.0,-,0.15,Rain,Light Rain,350,2013-02-08 14:54:00
10:01 AM,46.4,41.0,81,29.70,3.0,North,15.0,20.7,0.02,Rain,Rain,360,2013-02-08 15:01:00
10:54 AM,45.0,39.0,80,29.71,10.0,NNW,19.6,31.1,0.04,Rain,Light Rain,330,2013-02-08 15:54:00
11:54 AM,46.0,39.9,79,29.70,10.0,NW,17.3,28.8,0.00,,Overcast,320,2013-02-08 16:54:00
12:54 PM,48.0,41.0,77,29.69,10.0,NW,12.7,27.6,N/A,,Overcast,320,2013-02-08 17:54:00
1:18 PM,51.8,42.8,71,29.68,10.0,NNW,13.8,21.9,N/A,,Mostly Cloudy,330,2013-02-08 18:18:00
1:54 PM,53.1,43.0,69,29.68,10.0,NW,15.0,21.9,N/A,,Partly Cloudy,310,2013-02-08 18:54:00
2:18 PM,53.6,42.8,67,29.70,10.0,WNW,15.0,25.3,N/A,,Mostly Cloudy,300,2013-02-08 19:18:00
2:54 PM,52.0,41.0,66,29.69,10.0,NW,13.8,24.2,N/A,,Mostly Cloudy,320,2013-02-08 19:54:00
3:54 PM,50.0,39.9,68,29.71,10.0,West,15.0,20.7,N/A,,Mostly Cloudy,280,2013-02-08 20:54:00
4:08 PM,51.8,39.2,62,29.72,10.0,WNW,13.8,23.0,N/A,,Scattered Clouds,290,2013-02-08 21:08:00
4:33 PM,50.0,39.2,66,29.73,10.0,West,15.0,24.2,N/A,,Mostly Cloudy,280,2013-02-08 21:33:00
4:54 PM,50.0,39.0,66,29.74,10.0,WNW,13.8,24.2,N/A,,Mostly Cloudy,300,2013-02-08 21:54:00
5:10 PM,48.2,37.4,66,29.74,10.0,West,11.5,24.2,N/A,,Mostly Cloudy,280,2013-02-08 22:10:00
5:54 PM,48.9,37.9,66,29.76,10.0,WNW,9.2,-,N/A,,Scattered Clouds,290,2013-02-08 22:54:00
6:54 PM,48.0,37.9,68,29.79,10.0,NW,8.1,-,N/A,,Partly Cloudy,320,2013-02-08 23:54:00
7:54 PM,48.0,37.0,66,29.81,10.0,NW,9.2,-,N/A,,Mostly Cloudy,320,2013-02-09 00:54:00
8:54 PM,46.9,36.0,66,29.83,10.0,NW,12.7,18.4,N/A,,Partly Cloudy,310,2013-02-09 01:54:00
9:54 PM,46.9,33.1,59,29.86,10.0,NW,13.8,24.2,N/A,,Clear,310,2013-02-09 02:54:00
10:54 PM,45.0,27.0,49,29.88,10.0,NW,15.0,23.0,N/A,,Clear,310,2013-02-09 03:54:00
11:54 PM,44.1,26.1,49,29.91,10.0,WNW,9.2,-,N/A,,Partly Cloudy,290,2013-02-09 04:54:00